Location: A�t �Alizem
(31.2076°N, 8.7872°W)
Time: 13:43:09
(UTC+00:00)

Cosmos 1821 Rocket - Visible Passes

Search period start: 13 April 2021 00:00
Search period end: 23 April 2021 00:00
Orbit: 945 x 1005 km, 82.9° (Epoch: 12 April)

Date Brightness Start Highest point End Pass type
(mag) Time Alt. Az. Time Alt. Az. Time Alt. Az.
13 Apr 5.0 03:15:10 10° N 03:21:06 42° E 03:24:15 25° SE visible
13 Apr 5.1 05:01:20 10° NW 05:06:05 23° W 05:08:48 17° WSW visible
14 Apr 4.0 03:40:02 10° N 03:46:22 81° E 03:48:11 50° SSE visible
14 Apr 5.7 05:29:29 10° WNW 05:30:52 11° W 05:32:14 10° W visible
15 Apr 6.2 02:21:41 10° NNE 02:25:52 18° ENE 02:27:45 16° E visible
15 Apr 4.1 04:05:22 10° NNW 04:11:30 54° W 04:12:20 50° WSW visible
16 Apr 5.3 02:45:38 10° NNE 02:51:21 35° E 02:52:04 34° E visible
16 Apr 4.9 04:31:15 10° NNW 04:36:28 28° W 04:36:40 28° W visible
17 Apr 4.2 03:10:21 10° N 03:16:29 67° ENE 03:16:29 67° ENE visible
17 Apr 5.6 04:58:20 10° NW 05:01:05 14° W 05:01:05 14° W visible
18 Apr 6.3 01:52:36 10° NE 01:56:03 15° ENE 01:56:23 15° ENE visible
18 Apr 4.1 03:35:33 10° NNW 03:41:00 59° NW 03:41:00 59° NW visible
19 Apr 5.6 02:16:09 10° NNE 02:20:58 29° ENE 02:20:58 29° ENE visible
19 Apr 4.9 04:01:16 10° NNW 04:05:35 31° WNW 04:05:35 31° WNW visible
20 Apr 4.8 02:40:42 10° N 02:45:36 47° NE 02:45:36 47° NE visible
20 Apr 5.7 04:27:51 10° NW 04:30:13 16° WNW 04:30:13 16° WNW visible
21 Apr 6.5 01:23:52 10° NE 01:25:40 12° ENE 01:25:40 12° ENE visible
21 Apr 4.6 03:05:47 10° N 03:10:17 49° NNW 03:10:17 49° NNW visible
22 Apr 6.0 01:46:44 10° NNE 01:50:24 23° ENE 01:50:24 23° ENE visible
22 Apr 5.1 03:31:20 10° NNW 03:35:00 31° NW 03:35:00 31° NW visible
